Regional Weather Roundup
Issued by NWS Green Bay, WI

Home | Current Version | Previous Version | Graphics & Text | Print | Product List | Glossary Off
Versions: 1 2 3 4 5 6 7 8 9 10 11 12 13 14 15 16 17 18 19 20 21 22 23 24 25 26 27 28 29 30 31 32 33 34 35 36 37 38 39 40 41 42 43 44 45 46 47 48 49 50

000
ASUS43 KGRB 232201
RWRGRB

NORTH-CENTRAL AND NORTHEAST WISCONSIN REGIONAL WEATHER ROUNDUP
NATIONAL WEATHER SERVICE GREEN BAY WI
500 PM CDT SAT SEP 23 2017

WIZ005-009-010>012-018-019-232300-
NORTH CENTRAL WISCONSIN

CITY           SKY/WX    TMP DP  RH WIND       PRES   REMARKS
IRONWOOD       SUNNY     85  69  58 SW12G18   29.97
MANITOWISH WTR NOT AVBL
ARBOR VITAE    NOT AVBL
EAGLE RIVER    NOT AVBL
LAND O LAKES   NOT AVBL
RHINELANDER    PTSUNNY   85  65  51 SW13      30.04R
PHILLIPS       NOT AVBL
ANTIGO         NOT AVBL
TOMAHAWK       NOT AVBL
MERRILL        NOT AVBL
$$

WIZ013-073-232300-
NORTHEAST WISCONSIN

CITY           SKY/WX    TMP DP  RH WIND       PRES   REMARKS
IRON MOUNTAIN  SUNNY     88  62  41 S12       30.00R
MARINETTE      SUNNY     87  69  54 SW9       30.01S HX  91
$$

WIZ017-030-035>037-045-232300-
CENTRAL WISCONSIN

CITY           SKY/WX    TMP DP  RH WIND       PRES   REMARKS
MEDFORD        NOT AVBL
WAUSAU         MOSUNNY   86  65  49 SW12      30.01S
MOSINEE        MOSUNNY   84  66  54 S12G17    30.03S
MARSHFIELD     MOSUNNY   86  64  47 S10       30.02S
WISC RAPIDS    SUNNY     88  67  49 SW9       30.03R HX  91
STEVENS POINT  NOT AVBL
WAUPACA        NOT AVBL
SHAWANO        NOT AVBL
CLINTONVILLE   NOT AVBL
WAUTOMA        SUNNY     90  65  43 S7        30.01F HX  92
$$

WIZ038-039-048-051-232300-
FOX VALLEY

CITY           SKY/WX    TMP DP  RH WIND       PRES   REMARKS
NWS GREEN BAY  SUNNY     90  65  43 S10       30.02S HX  92
APPLETON       MOSUNNY   88  57  35 S9        30.01F
OSHKOSH        SUNNY     87  67  51 S6        30.02S HX  90
FOND DU LAC    SUNNY     88  64  44 S7        30.03F
$$

WIZ022-050-052-232300-
EAST CENTRAL WISCONSIN

CITY           SKY/WX    TMP DP  RH WIND       PRES   REMARKS
EPHRAIM        NOT AVBL
WASHINGTON ISL NOT AVBL
STURGEON BAY   SUNNY     83  68  60 S12       30.03S
MANITOWOC      SUNNY     82  67  60 S12       30.04F
SHEBOYGAN      SUNNY     85  69  58 S9        30.04F
$$

LMZ563-521-522-541>543-232300-
LAKESHORE

STATION/POSITION TIME  TEMP    WIND        PRES    VSBY  WAVE
                       AIR SEA DIR/SP/G                  HT/PER
                 (UTC) (F)     (DEG/KT/KT) (MB)    (MI)  (FT/S)
SHEBOYGAN LKSHOR 2100   76     180/ 18/ 18 1016.8F
KEWAUNEE LKSHORE 2130   69     180/ 13/ 14 1016.5F
NORTHPORT PIER   2140   82     160/  6/ 12 1016.3S
N MID LAKE BUOY  2050   69 67  190/ 12/ 14 1017.2F         2/ 4
S GREEN BAY BUOY 2100   77 70  200/  8/  8 1016.2F
SISTER BAY LKSHO 2119   88     180/ 13/ 15   N/A
MENOMINEE LKSHOR 2124   84     190/  7/ 11 1015.8F
$$




USA.gov is the U.S. government's official web portal to all federal, state and local government web resources and services.